x

Boston 16 Nm East Of Boston, Ma (44013) Wave Buoy

8:50am - Fri 27th May 2016 All times are EDT. -4 hours from GMT.

  • Sig Wave height 1.6ft
  • Swell Direction
  • Peak Period 9s
  • Average Period 4s
  • Wind
    7mph, 9mph gusts
  • Sea Temp 56°f
  • 空気 Temp 56°f
  • Sea Pressure 1019.3mb
  • Boston 16 Nm East Of Boston, Ma
  • Boston 16 Nm East Of Boston, Ma

More Historic Weather Station data

Upgrade to MSW Pro to gain access to the past 30 days of data for over 8000 Wavebouys and Weather Stations around the globe.

Join Pro

Comparision Forecast

View Surf forecast
   
Fri 05/27 8:50am 1.6ft 9s 4s 7 9 mph 1019.3mb 56f 56f
7:50am 1.6ft 3s 4s 7 9 mph 1019.4mb 55f 57f
6:50am 1.6ft 8s 4s 9
mph
1019.3mb 55f 57f
5:50am 2ft 4s 4s 9
mph
1019mb 55f 56f
4:50am 2ft 4s 4s 9
mph
1018.7mb 56f 57f
3:50am 2ft 4s 4s 9 11 mph 1018.6mb 55f 57f
2:50am 2ft 4s 4s 13 16 mph 1018.3mb 55f 57f
1:50am 2ft 10s 4s 16 18 mph 1018.1mb 55f 57f
12:50am 2.5ft 4s 4s 11 13 mph 1018.3mb 55f 56f
Thu 05/26 11:50pm 2.5ft 4s 4s 16 18 mph 1018.6mb 55f 57f
10:50pm 3ft 4s 4s 18 20 mph 1018.6mb 55f 58f
9:50pm 2.5ft 4s 4s 16 20 mph 1018.5mb 55f 58f
8:50pm 2ft 4s 4s 16 18 mph 1018mb 55f 58f
7:50pm 2ft 4s 4s 16 18 mph 1017.8mb 56f 58f
6:50pm 2ft 4s 4s 16 18 mph 1017.7mb 56f 58f
5:50pm 2ft 3s 4s 18 20 mph 1017.5mb 56f 59f
4:50pm 1.6ft 8s 4s 16 18 mph 1017.6mb 57f 59f
3:50pm 1.3ft 8s 6s 13
mph
1017.7mb 57f 59f
2:50pm 1.6ft 7s 6s 11 13 mph 1017.9mb 58f 60f
1:50pm 1.6ft 8s 7s 9 11 mph 1018.3mb 58f 61f
12:50pm 1.6ft 8s 7s 9
mph
1018.7mb 59f 62f
11:50am 1.6ft 8s 7s 7
mph
1019.3mb 61f 63f
10:50am 1.6ft 8s 7s 2
mph
1019.3mb 60f 63f
9:50am 1.6ft 9s 7s 2 4 mph 1019.7mb 57f 63f
8:50am 1.3ft 10s 7s 7 9 mph 1019.6mb 56f 61f
7:50am 1.3ft 8s 7s 7
mph
1019.2mb 56f 61f
6:50am 1.3ft 9s 7s  -  mph 1018.4mb 56f 62f
5:50am 1.3ft 11s 7s 4
mph
1017.6mb 56f 59f
4:50am 1.6ft 11s 6s 7
mph
1016.9mb 56f 60f
3:50am 1.6ft 11s 6s 4 9 mph 1016mb 56f 62f
2:50am 1.6ft 11s 6s 2
mph
1016mb 56f 60f
1:50am 1.6ft 11s 6s 2 4 mph 1015.7mb 56f 62f
12:50am 2ft 8s 6s 11
mph
1015.1mb 56f 62f
Wed 05/25 11:50pm 2.5ft 7s 6s 11 13 mph 1015mb 56f 64f
10:50pm 2ft 9s 6s 9
mph
1015mb 56f 65f
9:50pm 2ft 9s 6s 11 13 mph 1014.7mb 56f 66f
8:50pm 2ft 8s 6s 11 16 mph 1014.4mb 56f 67f
7:50pm 2ft 7s 6s 7
mph
1014mb 56f 69f
6:50pm 2ft 8s 6s 9 11 mph 1013.7mb 56f 62f
5:50pm 2ft 8s 6s 7 9 mph 1013.6mb 56f 63f
4:50pm 2ft 11s 6s 9
mph
1013.8mb 56f 60f
3:50pm 2ft 8s 6s 11 13 mph 1013.8mb 56f 60f
2:50pm 2ft 8s 6s 11
mph
1014.2mb 56f 58f
1:50pm 2.5ft 8s 6s 9 11 mph 1014.2mb 55f 57f
12:50pm 2.5ft 9s 6s 9 13 mph 1014.9mb 55f 54f
11:50am 2.5ft 9s 6s 11 13 mph 1015.5mb 55f 53f
10:50am 2.5ft 8s 6s 9 11 mph 1015.9mb 54f 53f
9:50am 2.5ft 9s 7s 9
mph
1015.7mb 54f 54f
8:50am 2.5ft 9s 6s 7
mph
1015.9mb 54f 53f
7:50am 2.5ft 8s 6s 7 9 mph 1015.8mb 54f 53f
6:50am 2ft 9s 6s 4
mph
1015.4mb 54f 53f
5:50am 2.5ft 9s 6s 9 11 mph 1015.5mb 54f 52f
4:50am 2.5ft 8s 5s 7 9 mph 1015.1mb 54f 51f
3:50am 2.5ft 8s 6s 7
mph
1014.5mb 54f 51f
2:50am 2.5ft 8s 5s 9 11 mph 1014.7mb 54f 51f
1:50am 2.5ft 8s 5s 9 11 mph 1014.3mb 54f 52f
12:50am 2.5ft 10s 5s 7 9 mph 1014.4mb 54f 51f
Tue 05/24 11:50pm 2.5ft 9s 5s 9 11 mph 1014.3mb 54f 52f
10:50pm 3ft 10s 5s 9 11 mph 1014.2mb 54f 52f
9:50pm 3ft 9s 5s 7 11 mph 1014.6mb 54f 52f
8:50pm 3.5ft 8s 5s 9 11 mph 1013.5mb 54f 52f
7:50pm 3ft 9s 5s 9 11 mph 1013.6mb 54f 52f
6:50pm 3.5ft 9s 5s 13 16 mph 1013.2mb 54f 52f
5:50pm 3.5ft 9s 5s 13 16 mph 1012.9mb 54f 52f
4:50pm 3.5ft 10s 5s 16 18 mph 1012.4mb 55f 52f
3:50pm 3.5ft 9s 5s 16 18 mph 1012.5mb 55f 52f
2:50pm 3.5ft 5s 5s 16 18 mph 1012.5mb 54f 52f
1:50pm 3.5ft 5s 5s 16 18 mph 1012.4mb 54f 52f
12:50pm 4ft 5s 5s 16 18 mph 1012.6mb 54f 51f
11:50am 3.5ft 10s 5s 16 18 mph 1012.6mb 54f 51f
10:50am 3.5ft 8s 5s 16 18 mph 1012.5mb 54f 51f
9:50am 4ft 10s 5s 13 18 mph 1012.5mb 54f 51f
8:50am 4ft 10s 5s 13 16 mph 1012.8mb 54f 51f
7:50am 4ft 10s 5s 16 18 mph 1012.5mb 54f 51f
6:50am 4ft 9s 5s 18 20 mph 1012mb 54f 51f
5:50am 4ft 10s 5s 13 18 mph 1011.6mb 54f 51f
4:50am 4ft 10s 5s 16 20 mph 1012.2mb 54f 52f
3:50am 3.5ft 10s 5s 25 29 mph 1011.2mb 55f 53f
2:50am 3.5ft 10s 6s 16 18 mph 1011.6mb 55f 55f
1:50am 3.5ft 11s 7s 9 11 mph 1011.9mb 55f 55f
12:50am 3.5ft 11s 7s 11 13 mph 1012mb 56f 56f
Mon 05/23 11:50pm 3.5ft 11s 7s 9 11 mph 1012.7mb 56f 55f
10:50pm 3.5ft 11s 7s  -  mph 1012.9mb 56f 56f
9:50pm 3.5ft 9s 7s 7 9 mph 1012.4mb 56f 56f
8:50pm 3.5ft 9s 6s 9 11 mph 1012.3mb 55f 56f
7:50pm 3.5ft 11s 6s 13 18 mph 1012.2mb 55f 57f
6:50pm 3.5ft 9s 6s 13 16 mph 1011.8mb 55f 56f
5:50pm 3.5ft 9s 7s 9 11 mph 1012.1mb 55f 57f
4:50pm 3.5ft 9s 7s 9 11 mph 1012.2mb 56f 60f
3:50pm 4ft 9s 7s 4
mph
1012.5mb 59f 60f
2:50pm 3.5ft 10s 7s 4
mph
1012.7mb 58f 59f